Flag Weather past 2 weeks in Tallinn, Estonia

Now
34 °F

Sleet. Overcast.


Feels Like: 28 °F
Forecast: 41 / 46 °F
Wind: 7 mph from West

Location: Tallinn

Current Time: Oct 31, 2014 at 12:52:24 AM

Latest Report: Oct 31, 2014 at 12:20 AM


Visibility: 4 mi

Pressure: 30.12 "Hg

Humidity: 100%

Dew point: 34 °F

Location of TallinnLocation

Historic Weather in Tallinn — Graph

°F

Tallinn temperature yesterday

Maximum temperature yesterday: 48 °F (at 11:50 AM)
Minimum temperature yesterday: 34 °F (at 8:50 AM)
Average temperature yesterday: 41 °F

Past Weeks' High & Low Weather Summary

 TemperatureHumidityPressure
High55 °F (Oct 28, 10:50 AM)100% (Oct 16, 8:20 AM)30.57 "Hg (Oct 16, 8:20 AM)
Low19 °F (Oct 23, 7:20 AM)27% (Oct 24, 3:20 PM)29.30 "Hg (Oct 20, 7:50 AM)
Average39 °F81%30.02 "Hg
* Reported Oct 16 12:20 AM — Oct 30 11:20 PM, Tallinn, Weather by CustomWeather, © 2014

Note: Actual official high and low records may vary slightly from our data, if they occured in-between our weather recording intervals... More about our weather records

Advertising

Tallinn weather history for previous 24 hours

 ConditionsComfort  
Time TempWeatherWind HumidityBarometerVisibility
11:20 PM
Oct 30
36 °FSleet. Overcast.5 mph100%30.12 "Hg2 mi
10:50 PM37 °FSleet. Overcast.7 mph100%30.09 "Hg2 mi
10:20 PM37 °FFog.8 mph100%30.09 "Hg3 mi
9:50 PM37 °FFog.7 mph100%30.09 "Hg3 mi
9:20 PM37 °FFog.7 mph100%30.09 "Hg3 mi
8:50 PM39 °FPassing clouds.6 mph93%30.09 "Hg4 mi
8:20 PM39 °FPassing clouds.6 mph100%30.09 "Hg4 mi
7:50 PM39 °FClear.6 mph100%30.09 "Hg5 mi
7:20 PM39 °FClear.5 mph100%30.07 "Hg5 mi
6:50 PM39 °FClear.7 mph100%30.07 "Hg6 mi
6:20 PM41 °FClear.7 mph93%30.07 "Hg10 mi
5:50 PM41 °FPassing clouds.8 mph93%30.07 "HgN/A
5:20 PM43 °FPassing clouds.7 mph87%30.07 "HgN/A
4:50 PM43 °FPassing clouds.6 mph93%30.07 "HgN/A
4:20 PM45 °FPassing clouds.10 mph87%30.07 "HgN/A
3:50 PM45 °FPassing clouds.10 mph87%30.04 "HgN/A
3:20 PM46 °FPassing clouds.12 mph82%30.04 "HgN/A
2:50 PM46 °FPassing clouds.13 mph82%30.04 "HgN/A
2:20 PM48 °FPassing clouds.13 mph76%30.04 "HgN/A
1:50 PM48 °FPassing clouds.10 mph82%30.04 "HgN/A
1:20 PM48 °FPassing clouds.9 mph82%30.04 "HgN/A
12:50 PM48 °FScattered clouds.9 mph82%30.04 "HgN/A
12:20 PM48 °FPartly sunny.8 mph82%30.04 "HgN/A
11:50 AM48 °FScattered clouds.6 mph87%30.04 "HgN/A
11:20 AM46 °FPassing clouds.5 mph93%30.04 "HgN/A
10:50 AM43 °FPassing clouds.6 mph100%30.04 "HgN/A
10:20 AM41 °FSunny.3 mph100%30.04 "Hg10 mi
9:50 AM37 °FFog.3 mph100%30.04 "Hg1 mi
9:20 AM36 °FFog.2 mph100%30.04 "Hg1 mi
8:50 AM34 °FSleet. Cloudy.2 mph100%30.04 "Hg1 mi
8:20 AM36 °FSleet. Cloudy.2 mph100%30.01 "Hg5 mi
7:50 AM36 °FFog.3 mph100%30.01 "Hg0 mi
7:20 AM37 °FSleet. Overcast.2 mph100%30.01 "Hg1 mi
6:50 AM37 °FFog.3 mph93%30.01 "Hg3 mi
6:20 AM37 °FSleet. Overcast.1 mph100%30.01 "Hg1 mi
5:50 AM36 °FFog.No wind100%30.01 "Hg1 mi
5:20 AM37 °FSleet. Overcast.No wind100%30.01 "Hg3 mi
4:50 AM37 °FSleet. Overcast.No wind100%30.01 "Hg3 mi
4:20 AM37 °FFog.2 mph100%30.01 "Hg3 mi
3:50 AM39 °FChilly.No wind100%30.01 "Hg4 mi
3:20 AM39 °FChilly.No wind100%30.01 "Hg4 mi
2:50 AM39 °FSleet. Overcast.No wind100%29.98 "Hg2 mi
2:20 AM39 °FFog.2 mph100%29.98 "Hg2 mi
1:50 AM39 °FSleet. Fog.No wind100%29.98 "Hg2 mi
1:20 AM39 °FFog.1 mph100%29.98 "Hg2 mi
12:50 AM41 °FFog.2 mph100%29.98 "Hg2 mi
12:20 AM41 °FLight fog.3 mph100%29.98 "Hg6 mi
Weather by CustomWeather, © 2014

See weather overviewHow to use our weather pages